Location: Unspecified
(0.0000°N, 0.0000°E)
Time: 17:39:09
(UTC+00:00)

ATLAS 5 CENTAUR DEB - Pass Details

Date: 14 March 2026
Orbit: 8253 x 35273 km, 19.8° (Epoch: 17 April)

Event Time Altitude Azimuth Distance (km) Brightness Sun altitude
Rises 15:36:16 0° 269° (W) 14,736 ? 38.2°
Reaches altitude 10° 15:46:10 10° 264° (W) 14,667 ? 35.7°
Maximum altitude 20:18:17 65° 219° (SW) 34,553 ? -32.3°
Enters shadow 01:12:17 56° 275° (W) 26,640 ? -74.0°
Exits shadow 02:16:40 61° 298° (WNW) 19,623 ? -58.0°
Drops below altitude 10° 04:00:01 10° 71° (ENE) 12,218 ? -32.2°
Sets 04:08:21 0° 76° (ENE) 13,164 ? -30.1°
